CW9533 Torre Faro Messina IT current weather conditions

sailwx.info

Wind from 211 at 6 knots gusting 23

Air temperature 16.1° C
Dewpoint 12.3° C

Last reported at 2017-Apr-26 02:56 UTC.
Time now 2017-Apr-26 04:07 UTC

Location: N 38°16' E 015°39'.
View on Google Maps.

See reports from other nearby stations

  
Tides and Currents Weather Stations Pressure Air Temp Water Temp Dewpoint Dewpoint Depression Visibility Wind Speed Wind Dir Waves Ship Positions
date/time (UTC)wind fromknots sea level pressurealtimeterstation pressurevisibilityair tempwater tempwave heightnotes
2017-Apr-26 02:56 211 6 gusting 23 16.1
2017-Apr-26 02:41 171 6 gusting 19 16.1
2017-Apr-26 02:26 223 6 gusting 21 16.1
2017-Apr-26 02:11 156 8 gusting 22 16.1
2017-Apr-26 01:56 213 6 gusting 23
2017-Apr-26 01:41 360 8 gusting 22 16.1
2017-Apr-26 01:25 205 10 gusting 20 16.1
2017-Apr-26 01:10 140 10 gusting 20 15.6
2017-Apr-26 00:55 238 9 gusting 17 16.1
2017-Apr-26 00:41 149 10 gusting 19
2017-Apr-26 00:25 245 10 gusting 16 15.6
2017-Apr-26 00:10 150 10 gusting 18 15.6
2017-Apr-25 23:55 360 10 gusting 19 15.6
2017-Apr-25 23:40 360 13 gusting 23 16.1
2017-Apr-25 23:25 137 13 gusting 24
2017-Apr-25 23:10 130 13 gusting 23 16.1
2017-Apr-25 22:55 197 13 gusting 20 16.1
2017-Apr-25 22:40 360 9 gusting 15 15.6
2017-Apr-25 22:25 215 9 gusting 19 15.6
2017-Apr-25 22:10 226 9 gusting 19
2017-Apr-25 21:55 150 9 gusting 19 16.1
2017-Apr-25 21:40 145 10 gusting 19 16.1
2017-Apr-25 21:25 190 8 gusting 20 16.1
2017-Apr-25 21:10 223 10 gusting 20 16.1
2017-Apr-25 20:55 360 10 gusting 19
2017-Apr-25 20:40 360 10 gusting 18 16.1
2017-Apr-25 20:25 360 9 gusting 18 16.1
2017-Apr-25 20:10 237 8 gusting 19 16.1
2017-Apr-25 19:55 144 11 gusting 19 16.1
2017-Apr-25 19:40 182 11 gusting 20
2017-Apr-25 19:25 188 7 gusting 17 16.1
2017-Apr-25 19:10 360 9 gusting 19 16.1
2017-Apr-25 18:55 186 9 gusting 16 16.1
2017-Apr-25 18:40 274 11 gusting 19 16.1
2017-Apr-25 18:25 196 9 gusting 19 16.1
2017-Apr-25 18:09 360 12 gusting 19 16.1
2017-Apr-25 17:55 217 10 gusting 19
2017-Apr-25 17:40 142 6 gusting 19 16.1
2017-Apr-25 17:24 360 11 gusting 22 16.1
2017-Apr-25 17:09 133 8 gusting 19 16.7
2017-Apr-25 16:54 360 8 gusting 16 16.7
2017-Apr-25 16:39 360 5 gusting 21
2017-Apr-25 16:24 150 6 gusting 17 16.7
2017-Apr-25 16:09 187 7 gusting 21 17.2
2017-Apr-25 15:54 136 6 gusting 19 17.2
2017-Apr-25 15:39 129 9 gusting 19 17.2
2017-Apr-25 15:24 175 6 gusting 18 17.2
2017-Apr-25 15:09 360 6 gusting 19 17.8
2017-Apr-25 14:54 360 6 gusting 21
2017-Apr-25 14:39 223 6 gusting 19 17.8
2017-Apr-25 14:24 192 6 gusting 17 17.8
2017-Apr-25 14:09 360 6 gusting 16 18.3
2017-Apr-25 13:54 239 8 gusting 21 18.3
2017-Apr-25 13:39 251 5 gusting 16
2017-Apr-25 13:24 231 5 gusting 13 18.9
2017-Apr-25 13:09 238 4 gusting 18 18.3
2017-Apr-25 12:54 225 6 gusting 18 18.3
2017-Apr-25 12:39 194 6 gusting 20 18.3
2017-Apr-25 12:24 360 5 gusting 19
2017-Apr-25 12:09 360 7 gusting 18 18.3
2017-Apr-25 11:54 270 5 gusting 21
2017-Apr-25 11:39 207 6 gusting 21 18.3
2017-Apr-25 11:24 360 5 gusting 18 18.3
2017-Apr-25 11:09 360 6 gusting 18 18.3
2017-Apr-25 10:54 223 6 gusting 18 18.3
2017-Apr-25 10:39 242 6 gusting 18
2017-Apr-25 10:24 216 5 gusting 15 18.3
2017-Apr-25 10:09 005 6 gusting 14 18.3
2017-Apr-25 09:54 192 7 gusting 14 18.3
2017-Apr-25 09:39 360 6 gusting 13 18.3
2017-Apr-25 09:24 259 6 gusting 19
2017-Apr-25 09:09 227 4 gusting 16 18.3
2017-Apr-25 08:54 207 5 gusting 15 18.3
2017-Apr-25 08:39 360 3 gusting 14 17.8
2017-Apr-25 08:24 203 6 gusting 13 17.8
2017-Apr-25 08:09 231 5 gusting 14
2017-Apr-25 07:54 221 4 gusting 13 17.8
2017-Apr-25 07:39 234 4 gusting 15 17.2
2017-Apr-25 07:23 142 2 gusting 14 17.2
2017-Apr-25 07:09 205 4 gusting 14 17.2
2017-Apr-25 06:53 199 3 gusting 13
2017-Apr-25 06:43 252 5 gusting 14 16.7
2017-Apr-25 06:34 360 5 gusting 15 16.7
2017-Apr-25 06:09 360 4 gusting 13 16.1
2017-Apr-25 05:53 178 1 gusting 14 16.1
2017-Apr-25 05:38 207 4 gusting 15
2017-Apr-25 05:23 240 2 gusting 17 15.6
2017-Apr-25 05:08 164 5 gusting 14 15.6
2017-Apr-25 04:53 360 7 gusting 15 15.6
2017-Apr-25 04:38 207 7 gusting 14 15.6
2017-Apr-25 04:23 150 8 gusting 14
2017-Apr-25 04:08 360 8 gusting 15 15.6
2017-Apr-25 03:53 360 8 gusting 13 15.0
2017-Apr-25 03:38 360 6 gusting 13 15.0
2017-Apr-25 03:23 360 6 gusting 12 15.0
2017-Apr-25 03:08 122 7 gusting 11 14.4
2017-Apr-25 02:53 360 6 gusting 14 15.0
2017-Apr-25 02:38 172 7 gusting 13
2017-Apr-25 02:23 135 9 gusting 15 14.4
2017-Apr-25 02:08 168 9 gusting 14 14.4
2017-Apr-25 01:53 141 6 gusting 13 15.0
2017-Apr-25 01:38 190 8 gusting 13 14.4
2017-Apr-25 01:23 360 9 gusting 14
2017-Apr-25 01:08 217 8 gusting 13 14.4
2017-Apr-25 00:53 360 9 gusting 15 15.0
2017-Apr-25 00:38 144 9 gusting 17 15.0
2017-Apr-25 00:23 360 9 gusting 15 15.0
2017-Apr-25 00:08 360 9 gusting 16
2017-Apr-24 23:54 213 8 gusting 18 15.0
2017-Apr-24 23:38 192 8 gusting 16 15.0
2017-Apr-24 23:23 229 8 gusting 17 15.0
2017-Apr-24 23:07 178 8 gusting 15 14.4
2017-Apr-24 22:53 153 8 gusting 17
2017-Apr-24 22:38 360 8 gusting 14 15.0
2017-Apr-24 22:23 146 8 gusting 15 15.0
2017-Apr-24 22:07 143 8 gusting 17 15.0
2017-Apr-24 21:52 184 9 gusting 16 15.0
2017-Apr-24 21:37 360 9 gusting 18
2017-Apr-24 21:22 168 10 gusting 15 15.0
2017-Apr-24 21:07 145 8 gusting 14 15.0
2017-Apr-24 20:52 360 7 gusting 13 15.0
2017-Apr-24 20:37 360 7 gusting 14 15.0
2017-Apr-24 20:22 138 9 gusting 15
2017-Apr-24 20:07 205 11 gusting 20 15.6
2017-Apr-24 19:52 360 9 gusting 19 15.6
2017-Apr-24 19:37 175 9 gusting 17 15.6
2017-Apr-24 19:22 360 9 gusting 19 15.6
2017-Apr-24 19:08 165 10 gusting 20
2017-Apr-24 18:52 360 9 gusting 15 15.6
2017-Apr-24 18:37 360 8 gusting 14 15.6
2017-Apr-24 18:22 137 8 gusting 20 15.6
2017-Apr-24 18:07 185 10 gusting 19 15.6
2017-Apr-24 17:52 205 10 gusting 17 16.1
2017-Apr-24 17:37 360 9 gusting 18 16.1
2017-Apr-24 17:22 142 10 gusting 18 16.1
2017-Apr-24 17:07 140 8 gusting 18
2017-Apr-24 16:52 360 10 gusting 18 16.1
2017-Apr-24 16:37 360 9 gusting 14 16.1
2017-Apr-24 16:22 138 9 gusting 17 16.1
2017-Apr-24 16:07 134 9 gusting 17 16.1
2017-Apr-24 15:51 173 8 gusting 17
2017-Apr-24 15:36 220 9 gusting 20 16.7
2017-Apr-24 15:21 134 10 gusting 17 16.7
2017-Apr-24 15:06 128 10 gusting 18 16.7
2017-Apr-24 14:51 168 10 gusting 17 16.7
2017-Apr-24 14:36 360 11 gusting 18
2017-Apr-24 14:21 219 9 gusting 18 17.2
2017-Apr-24 14:06 165 6 gusting 17 17.8
2017-Apr-24 13:51 360 9 gusting 19 17.2
2017-Apr-24 13:36 360 8 gusting 16 17.8
2017-Apr-24 13:21 360 6 gusting 17 17.8
2017-Apr-24 13:06 130 6 gusting 17 17.8
2017-Apr-24 12:51 139 9 gusting 16
2017-Apr-24 12:36 170 9 gusting 17 17.2
2017-Apr-24 12:21 360 8 gusting 13 17.8
2017-Apr-24 12:06 142 8 gusting 15 17.8
2017-Apr-24 11:51 360 7 gusting 13 17.8
2017-Apr-24 11:36 360 6 gusting 15
2017-Apr-24 11:21 149 7 gusting 14 17.8
2017-Apr-24 11:06 214 7 gusting 13 17.8
2017-Apr-24 10:51 224 6 gusting 12 18.3
2017-Apr-24 10:36 220 5 gusting 8 18.3
2017-Apr-24 10:21 217 3 gusting 8 18.9
2017-Apr-24 10:06 103 18.9
2017-Apr-24 09:51 094
2017-Apr-24 09:36 030 19.4
2017-Apr-24 09:21 010 17.2
2017-Apr-24 09:06 360
2017-Apr-24 08:51 018 17.8
2017-Apr-24 08:36 005
2017-Apr-24 08:21 046 17.2
2017-Apr-24 08:06 018 17.2
2017-Apr-24 07:51 360 1 gusting 7 16.7
2017-Apr-24 07:36 015 1 gusting 6 16.7
2017-Apr-24 07:21 355 0 gusting 6
2017-Apr-24 07:05 024 0 gusting 6 16.1
2017-Apr-24 06:51 346 1 gusting 6 16.1
2017-Apr-24 06:35 360 0 gusting 4 16.1
2017-Apr-24 06:20 005 15.6
2017-Apr-24 06:06 014 0 gusting 4 15.6
2017-Apr-24 05:50 011 15.6
2017-Apr-24 05:35 346 15.6
2017-Apr-24 05:20 360 0 gusting 5 15.0
2017-Apr-24 05:05 360 15.0
2017-Apr-24 04:50 013
2017-Apr-24 04:35 019 0 gusting 5 14.4
2017-Apr-24 04:20 025 0 gusting 4 14.4
2017-Apr-24 04:05 033 1 gusting 6 14.4